This demonstration page uses our WeatherBlox Daily Observations layout. Learn more.

Left ArrowRight Arrow

38.89511, -77.03637

Hourly Observations for June 3, 2018

Temp ( °F °C ) Dew Point ( °F °C ) Humidity (%) Winds ( mph kmh ) Pressure ( in mb ) Visibility ( mi km ) Precip ( " mm )
12:52 am 00:52 Cloudy 75 23.9 70 21.1 84 84 NNE 8 13 29.79 1009 10 16 N/A
1:39 am 01:39 Cloudy 75 23.9 70 21.1 84 84 NE 9 15 29.80 1009 10 16 N/A
1:52 am 01:52 Cloudy 75 23.9 70 21.1 84 84 NE 10 17 29.78 1008 10 16 N/A
1:59 am 01:59 Cloudy 74 23.3 70 21.1 88 88 NE 12 19 29.77 1008 10 16 N/A
2:27 am 02:27 Cloudy 74 23.3 70 21.1 88 88 NE 10 17 29.77 1008 10 16 N/A
2:35 am 02:35 Cloudy 74 23.3 70 21.1 88 88 NE 12 19 29.77 1008 10 16 N/A
2:43 am 02:43 Cloudy 74 23.3 70 21.1 88 88 NE 13 20 29.77 1008 10 16 N/A
2:52 am 02:52 Cloudy 74 23.3 70 21.1 88 88 NE 9 15 29.78 1008 10 16 N/A
3:52 am 03:52 Cloudy 75 23.9 70 21.1 84 84 ENE 10 17 29.78 1008 10 16 N/A
4:21 am 04:21 Mostly Cloudy with Nearby Thunderstorms 74 23.3 69 20.6 85 85 ENE 12 19 29.77 1008 10 16 N/A
4:42 am 04:42 Cloudy 74 23.3 69 20.6 85 85 ENE 9 15 29.77 1008 10 16 N/A
4:52 am 04:52 Cloudy 74 23.3 69 20.6 85 85 ENE 10 17 29.77 1008 10 16 N/A
4:59 am 04:59 Cloudy 74 23.3 69 20.6 85 85 ENE 10 17 29.77 1008 10 16 N/A
5:17 am 05:17 Cloudy with Nearby Thunderstorms 74 23.3 68 20 82 82 NE 14 22 29.77 1008 10 16 N/A
5:47 am 05:47 Cloudy with Thunderstorms 73 23 68 20 83 83 ENE 13 20 29.77 1008 7 11 N/A
5:52 am 05:52 Cloudy with Thunderstorms 73 22.8 69 20.6 87 87 ENE 14 22 29.77 1008 7 11 N/A
5:57 am 05:57 Cloudy with Nearby Thunderstorms 73 22.8 69 20.6 87 87 ENE 14 22 29.77 1008 10 16 N/A
6:05 am 06:05 Cloudy with Thunderstorms 73 22.8 69 20.6 87 87 ENE 14 22 29.77 1008 10 16 N/A
6:52 am 06:52 Cloudy with Thunderstorms 73 22.8 68 20 84 84 ENE 17 28 29.79 1009 7 11 N/A
7:18 am 07:18 Cloudy with Nearby Thunderstorms 73 22.8 68 20 84 84 ENE 15 24 29.80 1009 10 16 N/A
7:44 am 07:44 Cloudy with Nearby Thunderstorms 72 22.2 68 20 87 87 ENE 17 28 29.80 1009 9 14 N/A
7:52 am 07:52 Cloudy with Nearby Thunderstorms 72 22.2 68 20 87 87 ENE 18 30 29.81 1009 9 14 N/A
8:01 am 08:01 Cloudy with Heavy Rain 72 22.2 68 20 87 87 NE 17 28 29.80 1009 3 4 0.02 0.51
8:05 am 08:05 Cloudy with Heavy Rain 71 21.7 68 20 90 90 NE 15 24 29.80 1009 2 3 0.08 2.03
8:12 am 08:12 Cloudy with Rain 71 21.7 68 20 90 90 ENE 14 22 29.83 1010 2 3 0.09 2.29
8:17 am 08:17 Cloudy with Heavy Rain 71 21.7 68 20 90 90 ENE 15 24 29.83 1010 2 3 0.12 3.05
8:48 am 08:48 Cloudy with Light Rain 70 21 66 19 88 88 ENE 21 33 29.83 1010 5 8 0.34 8.64
8:52 am 08:52 Cloudy with Light Rain 70 21.1 66 18.9 87 87 ENE 17 28 29.82 1010 5 8 0.34 8.64
9:27 am 09:27 Cloudy with Light Rain 68 20 65 18.3 90 90 ENE 18 30 29.83 1010 4 6 N/A
9:52 am 09:52 Cloudy with Rain 67 19.4 64 17.8 91 91 ENE 20 31 29.83 1010 6 10 0.04 1.02
10:52 am 10:52 Cloudy with Light Rain 65 18.3 60 15.6 84 84 ENE 22 35 29.85 1011 7 11 0.11 2.79
11:17 am 11:17 Cloudy with Rain 65 18.3 60 15.6 84 84 ENE 17 28 29.85 1011 4 6 0.05 1.27
11:32 am 11:32 Mostly Cloudy with Heavy Rain 64 17.8 60 15.6 87 87 NE 17 28 29.85 1011 3 4 0.10 2.54
11:42 am 11:42 Cloudy with Heavy Rain 64 17.8 60 15.6 87 87 NE 16 26 29.85 1011 3 4 0.15 3.81
11:46 am 11:46 Cloudy with Heavy Rain 63 17 61 16 94 94 NE 16 26 29.88 1012 2 3 0.19 4.83
11:52 am 11:52 Cloudy with Rain 63 17.2 60 15.6 90 90 NE 18 30 29.87 1012 2 3 0.23 5.84
12:14 pm 12:14 Cloudy with Heavy Rain 63 17.2 59 15 87 87 NE 20 31 29.88 1012 2 3 0.10 2.54
12:34 pm 12:34 Cloudy with Rain 62 16.7 59 15 90 90 NE 16 26 29.88 1012 4 6 0.20 5.08
12:42 pm 12:42 Cloudy with Heavy Rain 63 17.2 59 15 87 87 NE 18 30 29.88 1012 2 3 0.23 5.84
12:47 pm 12:47 Cloudy with Heavy Rain 63 17 59 15 88 88 NE 15 24 29.88 1012 2 3 0.27 6.86
12:52 pm 12:52 Cloudy with Heavy Rain 62 16.7 59 15 90 90 NE 20 31 29.89 1012 2 3 0.31 7.87
1:03 pm 13:03 Cloudy with Light Rain 62 16.7 59 15 90 90 NE 13 20 29.88 1012 5 8 0.02 0.51
1:09 pm 13:09 Cloudy with Heavy Rain 62 16.7 59 15 90 90 NE 14 22 29.88 1012 2 3 0.04 1.02
1:11 pm 13:11 Cloudy with Heavy Rain 62 16.7 59 15 90 90 NNE 13 20 29.88 1012 3 5 0.07 1.78
1:52 pm 13:52 Cloudy with Rain 62 16.7 59 15 90 90 ENE 14 22 29.88 1012 3 4 0.34 8.64
2:22 pm 14:22 Cloudy with Light Rain 62 16.7 58 14.4 86 86 ENE 18 30 29.88 1012 3 5 0.06 1.52
2:37 pm 14:37 Cloudy with Light Rain 62 16.7 58 14.4 86 86 ENE 17 28 29.88 1012 3 4 0.08 2.03
2:47 pm 14:47 Cloudy with Light Rain 63 17 57 14 83 83 NE 16 26 29.88 1012 6 10 0.09 2.29
2:52 pm 14:52 Cloudy with Light Rain 61 16.1 57 13.9 87 87 NE 16 26 29.88 1012 10 16 0.09 2.29
3:52 pm 15:52 Cloudy with Light Rain 60 15.6 56 13.3 86 86 NNE 14 22 29.88 1012 7 11 N/A
4:22 pm 16:22 Cloudy with Light Rain 60 15.6 56 13.3 86 86 NE 15 24 29.88 1012 10 16 0.01 0.25
4:32 pm 16:32 Cloudy with Rain 60 15.6 56 13.3 86 86 NNE 14 22 29.88 1012 5 8 0.02 0.51
4:36 pm 16:36 Cloudy with Rain 60 15.6 56 13.3 86 86 NE 13 20 29.88 1012 3 5 0.04 1.02
4:39 pm 16:39 Cloudy with Rain 60 15.6 56 13.3 86 86 NNE 15 24 29.88 1012 3 4 0.05 1.27
4:41 pm 16:41 Cloudy with Light Rain 60 15.6 56 13.3 86 86 NE 15 24 29.88 1012 3 5 0.05 1.27
4:44 pm 16:44 Cloudy with Light Rain 60 15.6 56 13.3 86 86 NNE 13 20 29.88 1012 4 6 0.05 1.27
4:52 pm 16:52 Cloudy with Light Rain 60 15.6 56 13.3 86 86 NNE 15 24 29.88 1012 5 8 0.06 1.52
5:20 pm 17:20 Cloudy with Light Rain 60 15.6 56 13.3 86 86 NNE 17 28 29.88 1012 8 13 0.01 0.25
5:23 pm 17:23 Cloudy with Light Rain 59 15 56 13.3 90 90 NNE 14 22 29.88 1012 7 11 0.01 0.25
5:37 pm 17:37 Cloudy with Light Rain 59 15 56 13.3 90 90 NE 14 22 29.88 1012 6 10 0.03 0.76
5:52 pm 17:52 Cloudy with Light Rain 59 15 56 13.3 90 90 NE 13 20 29.87 1012 7 11 0.04 1.02
6:26 pm 18:26 Cloudy with Light Rain 59 15 56 13.3 90 90 NE 12 19 29.88 1012 10 16 0.04 1.02
6:32 pm 18:32 Cloudy with Light Rain 59 15 56 13.3 90 90 NNE 10 17 29.88 1012 10 16 0.04 1.02
6:46 pm 18:46 Cloudy with Light Rain 59 15 55 13 88 88 NNE 14 22 29.88 1012 10 16 0.05 1.27
6:52 pm 18:52 Cloudy with Light Rain 59 15 55 12.8 87 87 NNE 14 22 29.87 1012 10 16 0.06 1.52
7:47 pm 19:47 Cloudy with Light Rain 59 15 55 13 88 88 NNE 14 22 29.88 1012 10 16 0.02 0.51
7:52 pm 19:52 Cloudy with Light Rain 59 15 55 12.8 87 87 NNE 14 22 29.88 1012 10 16 0.02 0.51
8:34 pm 20:34 Cloudy with Light Rain 59 15 54 12.2 83 83 NE 14 22 29.88 1012 9 14 0.01 0.25
8:48 pm 20:48 Cloudy 59 15 55 13 88 88 NNE 10 17 29.88 1012 10 16 0.01 0.25
8:52 pm 20:52 Cloudy 59 15 55 12.8 87 87 NNE 8 13 29.87 1012 10 16 0.01 0.25
8:56 pm 20:56 Cloudy 59 15 55 12.8 87 87 NNE 12 19 29.88 1012 9 14 N/A
8:58 pm 20:58 Cloudy 58 14.4 55 12.8 90 90 NNE 10 17 29.88 1012 9 14 N/A
9:52 pm 21:52 Cloudy 59 15 55 12.8 87 87 NNE 13 20 29.87 1012 10 16 N/A
10:52 pm 22:52 Cloudy 58 14.4 54 12.2 87 87 NNE 15 24 29.88 1012 10 16 N/A
11:29 pm 23:29 Cloudy 58 14.4 53 11.7 84 84 NE 12 19 29.88 1012 10 16 N/A
11:33 pm 23:33 Cloudy 58 14.4 53 11.7 84 84 NE 9 15 29.88 1012 10 16 N/A
11:52 pm 23:52 Cloudy 58 14.4 53 11.7 84 84 NNE 10 17 29.87 1011 10 16 N/A

Powered by AerisWeather